Location: Unspecified
(50.1700°N, 6.8600°E)
Time: 03:49:40
(UTC+00:00)

Cosmos 1943 Rocket - Pass Details

Date: 24 January 2019
Orbit: 810 x 845 km, 71.0° (Epoch: 20 March)

Event Time Altitude Azimuth Distance (km) Brightness Sun altitude
Exits shadow 04:19:32 54° 5° (N) 987 2.5 -28.2°
Drops below altitude 10° 04:23:55 10° 26° (NNE) 2,429 4.9 -27.5°
Sets 04:26:23 0° 29° (NNE) 3,371 5.7 -27.1°
